CZ-3B DEB, 48542

Orbit data source: Space-Track

CZ-3B DEB, 48542 is space debris in HEO originally from a launch on Sat, 04 Sep 2010 UTC launched from the Xichang Space Center, China (XSC). Debris objects in space refer to the collection of defunct objects orbiting the Earth. Examples of debris include non-operational satellites, rocket bodies, and fragments generated from explosions, collisions, or faulty payload assembly.

Loading next visibility...
Identifier
48542, 2010-042AH
Orbit
HEO
Last TLE update
4 months ago
Origin
Manufacturer
CALT
Mission
Spacecraft
Bus & Motor
Unknown
Mass
Unknown
Launch date (UTC)
2010-09-04 (15 years ago)
Launch vehicle
Unknown
Launch site
Xichang Space Center, China (XSC)
Object type
Payload
Rocket body
Debris
Shape & HBR
Unknown
Radar Cross Section
Medium (>0.1 m² and <1 m²)

Expand to show TLE details & history

TLE from 4 months ago
0 CZ-3B DEB
1 48542U 10042AH  25001.96073048  .00002706  00000-0  14890-1 0  9993
2 48542  22.5672  16.3859 7371962 215.3059  60.2254  2.07196923 94530
Epoch: 2025-01-01T23:03Z
Definitive object data (Epoch: 2025-01-01T23:03:27.113Z)
Latitude
-0.00014°
Longitude
-71.3012°
Altitude
23,383.338 km
Speed
3.384 km/s
True Right ascension
01h 05m 37s
True Declination
0° 00' 01"
Sunlit
Object was in daylight at TLE epoch
Visualization TLE readout
Latitude
21.7916°
Longitude
-4.31608°
Altitude
38,628.088 km
Speed
1.53 km/s
Apparent Right ascension
05h 19m 56s
Apparent Declination
15° 21' 45"
Sunlit
Object is in daylight
Visualization observer readout
Local Sidereal Time
15:18:06
Azimuth
326.427° NNW
Elevation
-27.872°
Doppler factor
1
Orbital elements
Apogee altitude
38,779.751 km
Perigee altitude
453.368 km
Semi-major axis
25,994.697 km
Eccentricity
0.7371962
Inclination
22.5672°
RAAN
16.3859°
Arg. of periapsis
215.3059°
True anomaly
144.80053°
Mean anomaly
60.2254°
Eccentric anomaly
101.60081°
Mean motion
0.51786 °/min
BSTAR
0.01489
Orbital period
695.16 mins
Loading maneuver chart data...
Loading SW <> Apogee altitude chart data...
Loading historical data...
Loading historical data...
Loading historical data...
Loading historical data...
Loading historical data...
Loading historical data...
Loading historical data...

CZ-3B DEB Visibility forecast

Observer location: undefined°, undefined°

Span
Click to sort rows by Start time (UTC) header in descending order
Start Az.
Max El. time (UTC)
Max El. Az.
Max El.
End time (UTC)
End Az.
636 mins2025-05-09 13:27:08.890Z156.783° SSE2025-05-09 21:33:08.890Z135.671° SSE39.673°2025-05-10 00:03:08.890Z132.873° SE
|